DW5872 Weather Reports


Display with metric or nautical units.
time (UTC)temp
F
wind
direction
speed
MPH
gust
MPH
rain 1hr
in
rain 24hr
in
rain mn
in
humidity
%
barometer
mb
20260503203107 61 271 7.0 16.0 0.00 0.00 0.00 27 1010.6
20260503201556 61 300 6.0 15.0 0.00 0.00 0.00 27 1010.6
20260503200053 61 259 5.0 12.0 0.00 0.00 0.00 28 1011.0
20260503194558 60 276 3.0 11.0 0.00 0.00 0.00 29 1010.7
20260503193054 60 251 6.0 18.0 0.00 0.00 0.00 29 1011.1
20260503191559 60 304 4.0 14.0 0.00 0.00 0.00 30 1011.2
20260503190053 59 229 4.0 13.0 0.00 0.00 0.00 31 1011.2
20260503184551 58 250 4.0 13.0 0.00 0.00 0.00 33 1011.4
20260503183053 57 313 3.0 13.0 0.00 0.00 0.00 35 1011.5
20260503181602 57 302 5.0 13.0 0.00 0.00 0.00 36 1011.9
20260503174557 54 294 4.0 12.0 0.00 0.00 0.00 36 1012.0
20260503173100 55 301 3.0 12.0 0.00 0.00 0.00 38 1012.2
20260503171553 55 60 3.0 12.0 0.00 0.00 0.00 38 1012.0
20260503081557 48 0 1.0 6.0 0.00 0.00 0.00 50 1010.4
20260503071603 49 38 0.0 4.0 0.00 0.00 0.00 48 1010.3
20260503060107 51 0 0.0 1.0 0.00 0.00 0.00 48 1010.7
20260503054556 51 0 0.0 3.0 0.00 0.00 0.00 47 1010.7
20260503053055 52 22 0.0 4.0 0.00 0.00 0.00 45 1010.6
20260503051555 52 0 0.0 3.0 0.00 0.00 0.00 45 1010.6
20260503050058 52 22 0.0 4.0 0.00 0.00 0.00 44 1011.0
20260503044605 52 22 1.0 8.0 0.00 0.00 0.00 43 1011.0
20260503043100 52 0 0.0 3.0 0.00 0.00 0.00 43 1011.0
20260503041556 53 0 0.0 4.0 0.00 0.00 0.00 43 1011.1
20260503040100 53 0 0.0 4.0 0.00 0.00 0.00 44 1011.1
20260503034558 53 300 0.0 3.0 0.00 0.00 0.00 42 1011.0
20260503033109 53 300 0.0 3.0 0.00 0.00 0.00 42 1010.8
20260503031600 53 300 0.0 3.0 0.00 0.00 0.00 43 1010.7
20260503030055 54 0 0.0 3.0 0.00 0.00 0.00 42 1010.7
20260503024555 54 0 1.0 7.0 0.00 0.00 0.00 39 1010.6
20260503023101 55 311 0.0 3.0 0.00 0.00 0.00 41 1010.7
20260503021555 55 311 0.0 4.0 0.00 0.00 0.00 40 1010.7
20260503020052 55 0 1.0 4.0 0.00 0.00 0.00 40 1010.6
20260503014557 56 0 0.0 3.0 0.00 0.00 0.00 39 1010.8
20260503013105 56 313 0.0 3.0 0.00 0.00 0.00 39 1010.9
20260503011604 57 0 1.0 5.0 0.00 0.00 0.00 37 1010.9
20260503010058 57 0 1.0 8.0 0.00 0.00 0.00 37 1010.6
20260503004607 57 291 1.0 6.0 0.00 0.00 0.00 37 1010.4
20260503003105 57 277 1.0 4.0 0.00 0.00 0.00 38 1010.3
20260503001609 58 277 0.0 3.0 0.00 0.00 0.00 39 1010.1
20260503000112 58 277 0.0 4.0 0.00 0.00 0.00 38 1010.1
20260502234559 58 277 0.0 7.0 0.00 0.00 0.00 37 1010.0
20260502233101 59 279 1.0 6.0 0.00 0.00 0.00 37 1010.2
20260502231553 59 279 1.0 4.0 0.00 0.00 0.00 36 1010.1
20260502230116 60 277 1.0 4.0 0.00 0.00 0.00 36 1010.1
20260502224607 60 277 2.0 6.0 0.00 0.00 0.00 36 1010.0
20260502223055 60 275 3.0 8.0 0.00 0.00 0.00 35 1009.7
20260502221552 61 302 2.0 8.0 0.00 0.00 0.00 35 1009.9
20260502220054 61 272 3.0 10.0 0.00 0.00 0.00 34 1009.7
20260502214553 62 342 0.0 4.0 0.00 0.00 0.00 35 1010.0
20260502213053 62 345 1.0 4.0 0.00 0.00 0.00 34 1009.8
20260502211557 62 23 0.0 5.0 0.00 0.00 0.00 35 1009.7
20260502210054 61 238 1.0 5.0 0.00 0.00 0.00 36 1009.5
20260502204605 61 261 1.0 6.0 0.00 0.00 0.00 37 1009.5